QPF
0.01 0.02 0.04 0.04 0.03 0.02 0.02 0.04 0.05 0.04 0.04 0.05 0.06 0.06 0.05 0.05 0.06 0.05 0.03 0.02 0.03 0.03 0.05 0.09 0.11 0.06 0.04 0.06 0.11 0.15 0.18 0.15 0.16 0.21 0.16 0.14 0.12 0.12 0.12 0.12 0.11 0.07 0.08
0.01 0.01 0.03 0.03 0.02 0.02 0.02 0.04 0.03 0.02 0.02 0.03 0.03 0.05 0.05 0.06 0.06 0.04 0.03 0.04 0.04 0.05 0.05 0.06 0.07 0.06 0.05 0.07 0.09 0.12 0.15 0.17 0.22 0.27 0.20 0.18 0.15 0.12 0.10 0.10 0.09 0.09 0.09
0.01 0.01 0.02 0.03 0.03 0.03 0.02 0.02 0.02 0.02 0.02 0.02 0.03 0.03 0.04 0.04 0.03 0.03 0.04 0.05 0.06 0.08 0.06 0.07 0.09 0.07 0.06 0.09 0.12 0.14 0.13 0.14 0.20 0.29 0.24 0.16 0.13 0.11 0.08 0.08 0.08 0.08 0.08
0.01 0.02 0.01 0.03 0.03 0.03 0.02 0.02 0.01 0.02 0.02 0.02 0.03 0.03 0.03 0.02 0.02 0.03 0.04 0.05 0.08 0.11 0.08 0.07 0.10 0.08 0.06 0.09 0.14 0.15 0.13 0.14 0.21 0.26 0.27 0.15 0.12 0.13 0.09 0.07 0.08 0.09 0.10
0.01 0.01 0.02 0.03 0.03 0.02 0.02 0.02 0.02 0.02 0.03 0.02 0.03 0.03 0.03 0.03 0.03 0.03 0.04 0.06 0.09 0.10 0.09 0.07 0.06 0.06 0.06 0.06 0.11 0.12 0.13 0.15 0.20 0.20 0.26 0.17 0.14 0.15 0.11 0.07 0.07 0.09 0.10
0.00 0.01 0.02 0.04 0.03 0.03 0.03 0.04 0.03 0.02 0.03 0.04 0.04 0.05 0.04 0.03 0.02 0.03 0.03 0.05 0.07 0.07 0.07 0.08 0.08 0.06 0.06 0.06 0.08 0.10 0.10 0.10 0.17 0.20 0.24 0.20 0.16 0.17 0.14 0.10 0.08 0.11 0.10
0.02 0.02 0.03 0.05 0.05 0.05 0.05 0.05 0.04 0.03 0.04 0.05 0.04 0.05 0.05 0.04 0.02 0.02 0.03 0.04 0.04 0.04 0.06 0.06 0.08 0.06 0.06 0.07 0.09 0.10 0.12 0.10 0.16 0.27 0.24 0.19 0.18 0.19 0.17 0.15 0.13 0.13 0.12
0.03 0.03 0.03 0.05 0.05 0.06 0.06 0.05 0.04 0.04 0.04 0.05 0.06 0.05 0.05 0.03 0.02 0.02 0.03 0.03 0.03 0.04 0.05 0.04 0.04 0.05 0.07 0.08 0.09 0.11 0.12 0.08 0.08 0.20 0.30 0.22 0.19 0.19 0.16 0.13 0.12 0.12 0.11
0.03 0.03 0.03 0.04 0.04 0.05 0.06 0.05 0.04 0.04 0.04 0.04 0.05 0.05 0.04 0.03 0.02 0.03 0.03 0.02 0.03 0.04 0.04 0.04 0.04 0.05 0.06 0.07 0.08 0.12 0.14 0.09 0.06 0.10 0.22 0.24 0.21 0.21 0.18 0.14 0.12 0.10 0.09
0.04 0.03 0.03 0.03 0.04 0.04 0.04 0.06 0.05 0.04 0.05 0.05 0.06 0.06 0.05 0.04 0.03 0.04 0.03 0.03 0.04 0.04 0.03 0.03 0.03 0.04 0.04 0.05 0.05 0.06 0.08 0.09 0.08 0.09 0.15 0.15 0.15 0.20 0.20 0.16 0.13 0.10 0.09
0.06 0.04 0.03 0.03 0.04 0.04 0.02 0.04 0.09 0.07 0.07 0.07 0.08 0.07 0.06 0.05 0.05 0.04 0.04 0.04 0.03 0.03 0.04 0.03 0.03 0.04 0.04 0.04 0.05 0.06 0.04 0.05 0.07 0.08 0.10 0.09 0.10 0.18 0.20 0.17 0.16 0.13 0.09
0.03 0.04 0.05 0.03 0.02 0.02 0.02 0.03 0.07 0.08 0.09 0.09 0.11 0.09 0.08 0.07 0.05 0.04 0.05 0.05 0.03 0.03 0.03 0.04 0.03 0.03 0.04 0.05 0.05 0.04 0.04 0.03 0.05 0.05 0.06 0.08 0.09 0.16 0.17 0.15 0.16 0.20 0.16
0.01 0.03 0.06 0.05 0.02 0.02 0.02 0.03 0.04 0.06 0.08 0.09 0.11 0.10 0.10 0.09 0.07 0.05 0.05 0.04 0.04 0.03 0.04 0.03 0.03 0.03 0.03 0.03 0.03 0.03 0.03 0.02 0.03 0.03 0.05 0.06 0.06 0.10 0.12 0.13 0.12 0.19 0.26
0.01 0.04 0.06 0.07 0.04 0.02 0.02 0.02 0.02 0.03 0.06 0.07 0.09 0.08 0.08 0.09 0.11 0.10 0.06 0.05 0.04 0.04 0.04 0.03 0.03 0.02 0.02 0.02 0.02 0.03 0.03 0.03 0.03 0.03 0.05 0.04 0.04 0.07 0.09 0.11 0.09 0.11 0.22
0.02 0.03 0.03 0.04 0.04 0.03 0.02 0.02 0.01 0.02 0.03 0.04 0.07 0.09 0.07 0.10 0.10 0.11 0.10 0.07 0.05 0.05 0.05 0.04 0.02 0.02 0.02 0.02 0.02 0.02 0.03 0.03 0.03 0.03 0.04 0.03 0.04 0.05 0.06 0.09 0.08 0.09 0.15
0.03 0.02 0.01 0.03 0.03 0.03 0.04 0.02 0.02 0.02 0.02 0.02 0.04 0.07 0.06 0.08 0.09 0.09 0.10 0.09 0.08 0.07 0.06 0.04 0.03 0.03 0.03 0.02 0.02 0.02 0.03 0.04 0.03 0.02 0.03 0.03 0.04 0.05 0.05 0.05 0.07 0.10 0.13
0.02 0.03 0.02 0.03 0.06 0.03 0.04 0.03 0.02 0.02 0.01 0.02 0.03 0.04 0.05 0.06 0.06 0.07 0.07 0.08 0.09 0.09 0.08 0.06 0.05 0.03 0.03 0.02 0.02 0.02 0.02 0.02 0.02 0.02 0.03 0.03 0.03 0.04 0.05 0.04 0.05 0.06 0.10
0.02 0.04 0.04 0.07 0.09 0.05 0.05 0.04 0.03 0.02 0.02 0.02 0.03 0.05 0.06 0.05 0.05 0.05 0.05 0.06 0.07 0.08 0.07 0.07 0.05 0.04 0.03 0.03 0.02 0.02 0.02 0.02 0.02 0.02 0.02 0.01 0.02 0.02 0.04 0.04 0.04 0.04 0.07
0.02 0.03 0.04 0.08 0.10 0.07 0.07 0.06 0.07 0.05 0.04 0.04 0.04 0.05 0.06 0.05 0.04 0.04 0.05 0.05 0.05 0.05 0.05 0.05 0.04 0.04 0.03 0.02 0.02 0.02 0.01 0.01 0.02 0.02 0.01 0.01 0.01 0.02 0.02 0.03 0.04 0.05 0.07
0.01 0.02 0.02 0.06 0.11 0.10 0.08 0.08 0.08 0.10 0.12 0.09 0.05 0.04 0.04 0.03 0.03 0.03 0.04 0.04 0.05 0.05 0.04 0.04 0.04 0.04 0.03 0.02 0.02 0.02 0.01 0.02 0.02 0.02 0.02 0.01 0.01 0.02 0.02 0.02 0.03 0.05 0.06
0.01 0.02 0.02 0.02 0.05 0.05 0.06 0.08 0.08 0.07 0.12 0.16 0.10 0.05 0.03 0.02 0.03 0.04 0.03 0.04 0.04 0.03 0.03 0.03 0.04 0.03 0.03 0.03 0.03 0.03 0.02 0.01 0.01 0.01 0.02 0.01 0.01 0.02 0.03 0.04 0.04 0.03 0.05
0.01 0.02 0.02 0.02 0.02 0.03 0.04 0.06 0.09 0.07 0.06 0.06 0.05 0.03 0.02 0.02 0.03 0.03 0.04 0.04 0.03 0.03 0.03 0.03 0.03 0.03 0.02 0.03 0.03 0.04 0.03 0.02 0.01 0.01 0.01 0.02 0.02 0.03 0.04 0.04 0.05 0.04 0.05
0.01 0.01 0.01 0.01 0.03 0.04 0.03 0.03 0.06 0.08 0.06 0.04 0.03 0.02 0.02 0.02 0.03 0.03 0.03 0.04 0.03 0.02 0.02 0.03 0.03 0.03 0.02 0.02 0.02 0.03 0.03 0.02 0.02 0.02 0.02 0.02 0.03 0.05 0.06 0.05 0.05 0.05 0.05
0.01 0.01 0.01 0.02 0.03 0.05 0.04 0.03 0.04 0.05 0.04 0.03 0.02 0.02 0.02 0.02 0.03 0.03 0.03 0.03 0.03 0.02 0.02 0.02 0.03 0.03 0.03 0.02 0.02 0.02 0.02 0.03 0.03 0.03 0.02 0.03 0.04 0.05 0.05 0.05 0.05 0.05 0.06
0.01 0.01 0.01 0.02 0.03 0.06 0.06 0.04 0.05 0.04 0.03 0.03 0.03 0.02 0.02 0.02 0.02 0.03 0.03 0.03 0.03 0.03 0.02 0.02 0.02 0.03 0.02 0.02 0.01 0.02 0.03 0.03 0.03 0.03 0.03 0.04 0.04 0.04 0.04 0.05 0.05 0.06 0.06
0.01 0.02 0.02 0.03 0.03 0.04 0.04 0.04 0.04 0.04 0.04 0.04 0.04 0.04 0.03 0.02 0.02 0.02 0.02 0.02 0.02 0.02 0.02 0.02 0.02 0.02 0.02 0.02 0.03 0.04 0.04 0.04 0.03 0.03 0.03 0.04 0.04 0.04 0.04 0.04 0.05 0.06 0.07
MSLP
1012.74 1012.51 1012.37 1012.32 1012.34 1012.39 1012.42 1012.41 1012.34 1012.24 1012.15 1012.10 1012.15 1012.28 1012.51 1012.80 1013.10 1013.37 1013.57 1013.69 1013.74 1013.75 1013.76 1013.79 1013.86 1013.96 1014.05 1014.12 1014.13 1014.07 1013.95 1013.79 1013.64 1013.55 1013.54 1013.64 1013.85 1014.14 1014.48 1014.82 1015.14 1015.41 1015.65
1012.88 1012.69 1012.58 1012.55 1012.57 1012.62 1012.65 1012.63 1012.57 1012.46 1012.37 1012.32 1012.36 1012.50 1012.71 1012.99 1013.27 1013.51 1013.69 1013.80 1013.84 1013.86 1013.89 1013.95 1014.05 1014.18 1014.32 1014.41 1014.44 1014.39 1014.26 1014.09 1013.92 1013.80 1013.77 1013.85 1014.05 1014.33 1014.66 1015.00 1015.32 1015.60 1015.84
1012.90 1012.75 1012.68 1012.68 1012.73 1012.80 1012.85 1012.86 1012.81 1012.73 1012.66 1012.63 1012.68 1012.81 1013.01 1013.26 1013.50 1013.71 1013.86 1013.94 1013.98 1014.00 1014.04 1014.13 1014.27 1014.43 1014.58 1014.69 1014.72 1014.67 1014.53 1014.34 1014.15 1014.02 1013.98 1014.06 1014.24 1014.51 1014.83 1015.16 1015.46 1015.73 1015.97
1012.83 1012.72 1012.69 1012.73 1012.82 1012.93 1013.02 1013.08 1013.08 1013.05 1013.03 1013.04 1013.10 1013.23 1013.42 1013.64 1013.84 1014.01 1014.12 1014.18 1014.20 1014.23 1014.29 1014.40 1014.55 1014.73 1014.89 1014.99 1015.01 1014.93 1014.77 1014.57 1014.37 1014.23 1014.18 1014.25 1014.42 1014.67 1014.97 1015.27 1015.55 1015.80 1016.03
1012.73 1012.66 1012.66 1012.75 1012.89 1013.05 1013.20 1013.31 1013.38 1013.42 1013.45 1013.51 1013.61 1013.75 1013.93 1014.12 1014.30 1014.42 1014.50 1014.53 1014.55 1014.58 1014.65 1014.77 1014.92 1015.10 1015.24 1015.32 1015.30 1015.19 1015.00 1014.78 1014.57 1014.43 1014.38 1014.44 1014.60 1014.83 1015.09 1015.35 1015.60 1015.82 1016.03
1012.67 1012.63 1012.67 1012.80 1012.99 1013.20 1013.41 1013.58 1013.71 1013.82 1013.91 1014.02 1014.15 1014.32 1014.50 1014.67 1014.81 1014.91 1014.96 1014.98 1014.99 1015.02 1015.10 1015.22 1015.37 1015.52 1015.63 1015.67 1015.61 1015.45 1015.23 1014.99 1014.78 1014.63 1014.59 1014.65 1014.79 1014.99 1015.21 1015.43 1015.62 1015.80 1015.98
1012.71 1012.70 1012.77 1012.94 1013.16 1013.42 1013.67 1013.88 1014.07 1014.22 1014.36 1014.51 1014.68 1014.86 1015.04 1015.20 1015.33 1015.41 1015.44 1015.45 1015.46 1015.50 1015.57 1015.69 1015.83 1015.96 1016.03 1016.02 1015.91 1015.71 1015.46 1015.20 1014.98 1014.85 1014.81 1014.87 1015.00 1015.17 1015.35 1015.50 1015.64 1015.76 1015.91
1012.87 1012.89 1012.99 1013.19 1013.44 1013.71 1013.98 1014.21 1014.42 1014.59 1014.76 1014.93 1015.12 1015.31 1015.49 1015.65 1015.77 1015.83 1015.86 1015.86 1015.87 1015.91 1015.99 1016.11 1016.24 1016.34 1016.38 1016.33 1016.18 1015.95 1015.68 1015.41 1015.20 1015.07 1015.05 1015.11 1015.23 1015.37 1015.50 1015.60 1015.67 1015.74 1015.83
1013.14 1013.19 1013.33 1013.54 1013.80 1014.07 1014.32 1014.55 1014.73 1014.90 1015.07 1015.24 1015.43 1015.63 1015.81 1015.96 1016.07 1016.13 1016.14 1016.15 1016.16 1016.20 1016.29 1016.41 1016.53 1016.62 1016.64 1016.57 1016.40 1016.15 1015.87 1015.61 1015.41 1015.31 1015.30 1015.37 1015.49 1015.61 1015.69 1015.73 1015.74 1015.74 1015.77
1013.46 1013.56 1013.73 1013.96 1014.21 1014.46 1014.67 1014.85 1015.00 1015.14 1015.28 1015.44 1015.62 1015.81 1015.99 1016.13 1016.23 1016.28 1016.29 1016.28 1016.30 1016.35 1016.44 1016.57 1016.70 1016.79 1016.81 1016.74 1016.57 1016.33 1016.06 1015.81 1015.64 1015.56 1015.57 1015.65 1015.77 1015.86 1015.91 1015.90 1015.85 1015.78 1015.75
1013.78 1013.93 1014.14 1014.38 1014.62 1014.83 1015.00 1015.12 1015.21 1015.29 1015.39 1015.53 1015.70 1015.88 1016.05 1016.19 1016.28 1016.32 1016.32 1016.31 1016.32 1016.37 1016.47 1016.61 1016.76 1016.88 1016.92 1016.86 1016.72 1016.50 1016.26 1016.04 1015.89 1015.83 1015.86 1015.95 1016.06 1016.15 1016.17 1016.12 1016.01 1015.88 1015.79
1014.05 1014.27 1014.52 1014.77 1014.99 1015.16 1015.27 1015.33 1015.35 1015.39 1015.45 1015.57 1015.72 1015.90 1016.07 1016.21 1016.29 1016.32 1016.31 1016.29 1016.29 1016.34 1016.45 1016.61 1016.79 1016.94 1017.02 1017.00 1016.90 1016.72 1016.51 1016.32 1016.18 1016.14 1016.18 1016.28 1016.38 1016.46 1016.46 1016.37 1016.22 1016.04 1015.90
1014.25 1014.53 1014.82 1015.09 1015.30 1015.43 1015.49 1015.49 1015.47 1015.46 1015.50 1015.60 1015.75 1015.93 1016.11 1016.25 1016.33 1016.35 1016.33 1016.30 1016.29 1016.34 1016.46 1016.64 1016.85 1017.04 1017.17 1017.21 1017.15 1017.01 1016.84 1016.67 1016.55 1016.51 1016.55 1016.63 1016.73 1016.79 1016.78 1016.67 1016.49 1016.27 1016.07
1014.38 1014.72 1015.04 1015.32 1015.52 1015.63 1015.65 1015.62 1015.56 1015.53 1015.56 1015.66 1015.83 1016.02 1016.21 1016.37 1016.45 1016.47 1016.44 1016.40 1016.39 1016.44 1016.57 1016.76 1017.00 1017.24 1017.42 1017.51 1017.50 1017.41 1017.26 1017.10 1016.99 1016.94 1016.96 1017.02 1017.10 1017.15 1017.12 1017.00 1016.80 1016.55 1016.32
1014.45 1014.83 1015.18 1015.48 1015.68 1015.78 1015.78 1015.73 1015.67 1015.64 1015.67 1015.79 1015.96 1016.18 1016.39 1016.56 1016.66 1016.68 1016.65 1016.61 1016.59 1016.65 1016.78 1017.00 1017.27 1017.54 1017.76 1017.90 1017.94 1017.88 1017.76 1017.61 1017.48 1017.41 1017.40 1017.44 1017.50 1017.52 1017.48 1017.36 1017.15 1016.88 1016.62
1014.47 1014.88 1015.26 1015.57 1015.78 1015.88 1015.89 1015.85 1015.79 1015.77 1015.83 1015.96 1016.16 1016.39 1016.62 1016.80 1016.92 1016.95 1016.93 1016.90 1016.89 1016.95 1017.10 1017.33 1017.62 1017.92 1018.18 1018.36 1018.43 1018.40 1018.30 1018.15 1018.01 1017.91 1017.87 1017.88 1017.90 1017.91 1017.86 1017.73 1017.52 1017.25 1016.97
1014.45 1014.88 1015.28 1015.60 1015.82 1015.95 1015.98 1015.96 1015.94 1015.94 1016.01 1016.15 1016.36 1016.61 1016.85 1017.04 1017.17 1017.22 1017.22 1017.21 1017.21 1017.29 1017.45 1017.69 1017.99 1018.31 1018.60 1018.81 1018.91 1018.91 1018.82 1018.67 1018.52 1018.40 1018.33 1018.30 1018.30 1018.29 1018.23 1018.11 1017.90 1017.64 1017.36
1014.40 1014.84 1015.24 1015.58 1015.83 1015.98 1016.06 1016.08 1016.08 1016.11 1016.19 1016.34 1016.55 1016.79 1017.02 1017.22 1017.36 1017.43 1017.46 1017.47 1017.51 1017.60 1017.77 1018.02 1018.33 1018.66 1018.96 1019.18 1019.31 1019.33 1019.26 1019.13 1018.97 1018.84 1018.75 1018.70 1018.67 1018.65 1018.60 1018.48 1018.30 1018.06 1017.78
1014.29 1014.73 1015.14 1015.50 1015.78 1015.98 1016.10 1016.17 1016.22 1016.27 1016.36 1016.50 1016.69 1016.90 1017.12 1017.31 1017.45 1017.55 1017.61 1017.66 1017.72 1017.84 1018.02 1018.28 1018.59 1018.91 1019.21 1019.44 1019.59 1019.63 1019.58 1019.47 1019.34 1019.21 1019.11 1019.05 1019.02 1018.99 1018.95 1018.86 1018.70 1018.49 1018.24
1014.09 1014.54 1014.96 1015.35 1015.68 1015.93 1016.11 1016.24 1016.32 1016.40 1016.49 1016.61 1016.77 1016.95 1017.13 1017.31 1017.46 1017.58 1017.67 1017.75 1017.86 1018.00 1018.20 1018.45 1018.74 1019.05 1019.34 1019.57 1019.73 1019.80 1019.78 1019.71 1019.60 1019.49 1019.40 1019.35 1019.32 1019.31 1019.28 1019.22 1019.11 1018.95 1018.74
1013.80 1014.26 1014.71 1015.13 1015.51 1015.82 1016.07 1016.26 1016.39 1016.49 1016.58 1016.69 1016.80 1016.94 1017.10 1017.25 1017.40 1017.54 1017.67 1017.80 1017.94 1018.11 1018.31 1018.55 1018.82 1019.11 1019.37 1019.59 1019.75 1019.84 1019.86 1019.83 1019.76 1019.69 1019.63 1019.59 1019.58 1019.58 1019.58 1019.56 1019.51 1019.41 1019.28
1013.40 1013.88 1014.35 1014.82 1015.25 1015.64 1015.96 1016.21 1016.40 1016.54 1016.64 1016.72 1016.81 1016.91 1017.04 1017.18 1017.33 1017.49 1017.66 1017.82 1018.00 1018.18 1018.39 1018.61 1018.85 1019.10 1019.33 1019.53 1019.69 1019.80 1019.86 1019.87 1019.85 1019.82 1019.79 1019.78 1019.78 1019.81 1019.84 1019.87 1019.87 1019.86 1019.81
1012.90 1013.40 1013.91 1014.42 1014.91 1015.37 1015.76 1016.09 1016.34 1016.51 1016.63 1016.72 1016.79 1016.88 1016.98 1017.11 1017.28 1017.46 1017.66 1017.86 1018.06 1018.26 1018.46 1018.66 1018.86 1019.06 1019.25 1019.43 1019.58 1019.70 1019.79 1019.84 1019.87 1019.88 1019.89 1019.90 1019.92 1019.96 1020.03 1020.10 1020.17 1020.24 1020.30
1012.30 1012.83 1013.37 1013.92 1014.47 1014.99 1015.46 1015.86 1016.17 1016.40 1016.56 1016.66 1016.74 1016.82 1016.92 1017.05 1017.23 1017.44 1017.66 1017.90 1018.12 1018.33 1018.52 1018.69 1018.85 1019.01 1019.15 1019.30 1019.44 1019.57 1019.68 1019.77 1019.83 1019.88 1019.91 1019.94 1019.98 1020.04 1020.12 1020.23 1020.37 1020.53 1020.69
1011.60 1012.16 1012.73 1013.32 1013.92 1014.49 1015.03 1015.49 1015.88 1016.17 1016.37 1016.51 1016.61 1016.70 1016.81 1016.96 1017.16 1017.39 1017.64 1017.89 1018.13 1018.35 1018.52 1018.67 1018.80 1018.91 1019.02 1019.14 1019.27 1019.40 1019.53 1019.65 1019.74 1019.82 1019.87 1019.91 1019.96 1020.02 1020.11 1020.25 1020.44 1020.66 1020.92
1010.81 1011.40 1012.00 1012.61 1013.24 1013.86 1014.45 1014.98 1015.43 1015.78 1016.04 1016.23 1016.36 1016.48 1016.62 1016.79 1017.00 1017.25 1017.52 1017.79 1018.04 1018.26 1018.43 1018.56 1018.66 1018.75 1018.84 1018.94 1019.06 1019.20 1019.34 1019.48 1019.60 1019.69 1019.76 1019.81 1019.85 1019.91 1020.00 1020.15 1020.36 1020.64 1020.97
Thickness
5811 5808 5796 5793 5790 5788 5785 5783 5781 5780 5778 5777 5776 5775 5774 5772 5771 5770 5769 5769 5768 5768 5767 5767 5766 5765 5765 5764 5764 5763 5762 5761 5760 5758 5757 5757 5756 5754 5753 5752 5752 5751 5749
5812 5806 5794 5791 5789 5786 5784 5782 5780 5778 5776 5775 5773 5772 5771 5770 5769 5768 5767 5766 5766 5765 5765 5764 5763 5763 5762 5762 5761 5760 5759 5758 5757 5756 5755 5755 5753 5752 5750 5750 5749 5749 5747
5809 5803 5794 5789 5787 5784 5782 5780 5778 5776 5774 5773 5771 5770 5769 5768 5766 5765 5765 5764 5763 5762 5762 5761 5761 5761 5760 5759 5758 5757 5757 5756 5755 5754 5754 5755 5753 5750 5749 5748 5747 5746 5744
5807 5801 5795 5787 5784 5782 5780 5777 5776 5774 5772 5770 5769 5768 5767 5765 5764 5763 5762 5761 5760 5760 5759 5759 5758 5758 5757 5757 5756 5755 5754 5753 5752 5752 5754 5754 5753 5749 5747 5745 5745 5743 5741
5804 5800 5791 5785 5782 5780 5777 5775 5773 5771 5769 5768 5767 5766 5764 5762 5761 5760 5760 5759 5758 5757 5756 5756 5756 5756 5755 5754 5753 5752 5752 5750 5750 5752 5753 5751 5749 5746 5744 5743 5742 5740 5739
5802 5798 5789 5782 5779 5777 5775 5772 5770 5768 5767 5765 5764 5763 5761 5760 5758 5758 5757 5756 5755 5754 5753 5753 5754 5754 5753 5752 5751 5750 5749 5749 5750 5752 5750 5749 5747 5743 5742 5741 5739 5738 5737
5799 5795 5787 5779 5776 5774 5772 5770 5767 5765 5764 5762 5761 5759 5758 5757 5756 5755 5754 5753 5752 5751 5751 5751 5751 5751 5750 5749 5748 5747 5747 5747 5750 5751 5748 5747 5744 5740 5739 5738 5737 5736 5735
5795 5791 5784 5776 5773 5771 5769 5767 5765 5763 5761 5759 5758 5756 5755 5754 5753 5753 5751 5750 5749 5749 5748 5748 5748 5747 5746 5746 5745 5744 5744 5745 5748 5749 5746 5744 5740 5738 5737 5736 5734 5734 5733
5793 5788 5782 5778 5772 5768 5766 5764 5762 5760 5758 5757 5755 5754 5752 5751 5750 5750 5749 5748 5747 5747 5746 5745 5745 5744 5743 5743 5742 5741 5742 5743 5746 5746 5744 5742 5738 5736 5734 5733 5733 5732 5731
5789 5786 5781 5778 5773 5769 5766 5761 5759 5757 5756 5754 5753 5751 5750 5749 5748 5747 5747 5746 5745 5745 5744 5743 5742 5741 5740 5740 5739 5739 5739 5741 5744 5744 5742 5739 5735 5733 5732 5731 5731 5730 5729
5783 5782 5780 5777 5773 5769 5766 5761 5757 5755 5754 5753 5751 5749 5748 5749 5749 5747 5745 5743 5743 5743 5742 5741 5740 5739 5738 5737 5737 5737 5738 5741 5742 5740 5738 5735 5733 5732 5731 5730 5729 5729 5728
5779 5779 5778 5774 5771 5768 5765 5760 5758 5756 5753 5753 5752 5750 5749 5748 5747 5746 5742 5741 5741 5740 5740 5739 5738 5737 5738 5739 5737 5736 5738 5739 5738 5737 5735 5732 5730 5729 5729 5728 5727 5727 5726
5780 5776 5776 5772 5768 5765 5763 5760 5758 5756 5753 5752 5750 5748 5747 5746 5745 5745 5743 5741 5740 5739 5740 5737 5738 5738 5738 5737 5737 5737 5737 5737 5737 5736 5733 5730 5728 5727 5727 5726 5725 5725 5724
5779 5775 5773 5770 5766 5763 5761 5759 5756 5755 5753 5752 5749 5747 5746 5745 5744 5743 5742 5740 5740 5739 5737 5737 5736 5735 5734 5734 5735 5734 5734 5734 5734 5733 5730 5727 5726 5725 5724 5724 5723 5722 5722
5777 5773 5771 5767 5763 5759 5757 5756 5755 5753 5752 5749 5747 5745 5743 5743 5742 5741 5739 5737 5738 5736 5735 5733 5732 5731 5731 5731 5732 5731 5730 5730 5730 5729 5728 5725 5723 5722 5722 5721 5721 5720 5720
5775 5772 5769 5765 5761 5757 5754 5753 5752 5751 5748 5748 5746 5743 5740 5740 5738 5737 5734 5733 5733 5732 5732 5730 5729 5728 5728 5728 5727 5727 5726 5726 5725 5725 5725 5724 5721 5720 5719 5719 5718 5718 5717
5774 5771 5767 5763 5759 5756 5754 5753 5751 5748 5746 5744 5742 5739 5737 5736 5734 5732 5731 5730 5730 5728 5726 5726 5725 5724 5724 5724 5723 5723 5723 5722 5722 5721 5721 5722 5721 5718 5717 5716 5715 5715 5715
5775 5769 5765 5763 5758 5754 5752 5750 5749 5746 5743 5741 5739 5737 5734 5733 5731 5729 5728 5728 5725 5724 5724 5723 5722 5721 5720 5720 5720 5720 5719 5718 5718 5717 5718 5718 5718 5718 5716 5714 5713 5712 5712
5774 5769 5764 5760 5757 5754 5750 5748 5745 5742 5740 5737 5735 5734 5731 5729 5727 5727 5726 5724 5721 5721 5721 5721 5719 5717 5716 5715 5716 5715 5716 5715 5714 5714 5714 5714 5714 5714 5714 5712 5710 5710 5709
5773 5768 5763 5758 5755 5752 5748 5743 5741 5739 5737 5734 5732 5730 5729 5727 5725 5724 5723 5721 5720 5719 5717 5716 5714 5712 5712 5711 5712 5712 5712 5712 5711 5711 5711 5711 5711 5711 5711 5711 5710 5709 5707
5770 5765 5761 5756 5752 5748 5745 5741 5738 5735 5733 5731 5729 5726 5725 5724 5722 5720 5720 5718 5717 5716 5714 5713 5711 5709 5707 5707 5706 5705 5707 5708 5708 5708 5708 5709 5709 5709 5708 5708 5708 5709 5707
5767 5762 5758 5754 5750 5746 5743 5740 5737 5734 5731 5729 5727 5723 5722 5720 5718 5718 5716 5715 5714 5712 5710 5709 5707 5706 5705 5704 5702 5700 5700 5702 5703 5707 5706 5705 5706 5706 5706 5706 5706 5705 5705
5764 5760 5757 5752 5748 5744 5740 5737 5734 5730 5728 5726 5722 5720 5719 5717 5715 5714 5713 5712 5710 5710 5708 5706 5704 5702 5701 5701 5701 5699 5697 5697 5699 5703 5703 5703 5702 5702 5703 5703 5703 5702 5701
5763 5759 5754 5749 5744 5740 5737 5735 5731 5727 5724 5723 5721 5719 5716 5714 5712 5711 5709 5708 5707 5707 5705 5704 5703 5701 5698 5697 5698 5697 5697 5698 5694 5696 5699 5700 5699 5698 5699 5700 5701 5699 5698
5761 5757 5751 5746 5741 5737 5735 5732 5728 5726 5723 5721 5718 5715 5712 5712 5710 5709 5707 5705 5704 5704 5702 5701 5699 5697 5697 5696 5696 5696 5694 5692 5692 5690 5690 5693 5695 5697 5697 5696 5696 5696 5695
5757 5752 5748 5742 5737 5733 5731 5729 5725 5722 5719 5716 5713 5710 5709 5709 5708 5706 5704 5702 5701 5701 5699 5698 5696 5695 5695 5694 5693 5693 5692 5690 5689 5689 5687 5688 5689 5692 5693 5693 5693 5693 5692